When you browse on this site, cookies collect data to enhance your experience and personalize the content and advertising you see.
Visit our Privacy Policy to learn more. By continuing to use the site, you agree to this use of cookies and data.
  • In United Kingdom
  • List of Countries
  • For 7 days
  • Water Temperature
  • Weather Map
  • Weather Widgets
  • user-avatar
    Login

    Hourly Weather Rio de Janeiro

    Today, 19 January, Sunday

    Time Temperature Precipitation Wind Pressure Humidity
    00:00 +25°C° 0 mm 2 mps 761 mmHg 79%
    01:00 +25°C° 0 mm 2 mps 761 mmHg 80%
    02:00 +24°C° 0 mm 2 mps 760 mmHg 81%
    03:00 +24°C° 0 mm 2 mps 760 mmHg 81%
    04:00 +24°C° 0 mm 2 mps 760 mmHg 81%
    05:00 +24°C° 0 mm 1 mps 760 mmHg 81%
    06:00 +24°C° 0 mm 1 mps 760 mmHg 81%
    07:00 +25°C° 0 mm 1 mps 760 mmHg 77%
    08:00 +26°C° 0 mm 1 mps 761 mmHg 73%
    09:00 +27°C° 0 mm 1 mps 761 mmHg 69%
    10:00 +27°C° 0 mm 1 mps 761 mmHg 68%
    11:00 +27°C° 0 mm 1 mps 760 mmHg 67%
    12:00 +28°C° 0 mm 2 mps 760 mmHg 66%
    13:00 +28°C° 0 mm 2 mps 760 mmHg 65%
    14:00 +28°C° 0 mm 2 mps 760 mmHg 64%
    15:00 +29°C° 0 mm 3 mps 759 mmHg 63%
    16:00 +28°C° 0 mm 3 mps 759 mmHg 66%
    17:00 +27°C° 0 mm 3 mps 759 mmHg 69%
    18:00 +27°C° 0 mm 3 mps 759 mmHg 71%
    19:00 +26°C° 0 mm 3 mps 759 mmHg 73%
    20:00 +26°C° 0 mm 3 mps 760 mmHg 75%
    21:00 +25°C° 0 mm 2 mps 760 mmHg 77%
    22:00 +25°C° 0 mm 2 mps 760 mmHg 78%
    23:00 +25°C° 0 mm 2 mps 759 mmHg 79%

    Tomorrow, 20 January, Monday

    Time Temperature Precipitation Wind Pressure Humidity
    00:00 +24°C° 0 mm 1 mps 759 mmHg 80%
    01:00 +24°C° 0 mm 1 mps 759 mmHg 80%
    02:00 +24°C° 0 mm 1 mps 758 mmHg 81%
    03:00 +22°C° 0 mm 0 mps 758 mmHg 82%
    04:00 +22°C° 0 mm 0 mps 758 mmHg 81%
    05:00 +22°C° 0 mm 0 mps 758 mmHg 81%
    06:00 +22°C° 0 mm 0 mps 758 mmHg 80%
    07:00 +23°C° 0 mm 0 mps 758 mmHg 77%
    08:00 +24°C° 0 mm 0 mps 758 mmHg 74%
    09:00 +27°C° 0 mm 1 mps 759 mmHg 70%
    10:00 +28°C° 0 mm 1 mps 758 mmHg 67%
    11:00 +29°C° 0 mm 1 mps 758 mmHg 63%
    12:00 +30°C° 0 mm 2 mps 758 mmHg 59%
    13:00 +29°C° 0 mm 2 mps 757 mmHg 60%
    14:00 +29°C° 0 mm 2 mps 756 mmHg 61%
    15:00 +29°C° 0 mm 3 mps 756 mmHg 62%
    16:00 +28°C° 0.1 mm 2 mps 756 mmHg 66%
    17:00 +28°C° 0.1 mm 2 mps 756 mmHg 70%
    18:00 +27°C° 0.1 mm 2 mps 756 mmHg 73%
    19:00 +27°C° 0.3 mm 1 mps 756 mmHg 76%
    20:00 +26°C° 0.3 mm 1 mps 756 mmHg 78%
    21:00 +24°C° 0.3 mm 0 mps 757 mmHg 80%
    22:00 +24°C° 0.1 mm 0 mps 757 mmHg 81%
    23:00 +25°C° 0.1 mm 1 mps 757 mmHg 82%

    Day after tomorrow, 21 January, Tuesday

    Time Temperature Precipitation Wind Pressure Humidity
    00:00 +25°C° 0.1 mm 1 mps 757 mmHg 82%
    01:00 +25°C° 0 mm 1 mps 756 mmHg 83%
    02:00 +24°C° 0 mm 1 mps 755 mmHg 85%
    03:00 +24°C° 0 mm 1 mps 755 mmHg 86%
    04:00 +24°C° 0 mm 1 mps 755 mmHg 86%
    05:00 +24°C° 0 mm 1 mps 755 mmHg 86%
    06:00 +24°C° 0 mm 1 mps 755 mmHg 85%
    07:00 +26°C° 0 mm 1 mps 755 mmHg 79%
    08:00 +28°C° 0 mm 1 mps 755 mmHg 72%
    09:00 +29°C° 0 mm 1 mps 756 mmHg 66%
    10:00 +30°C° 0.1 mm 1 mps 755 mmHg 63%
    11:00 +31°C° 0.1 mm 2 mps 755 mmHg 61%
    12:00 +31°C° 0.1 mm 3 mps 755 mmHg 59%
    13:00 +31°C° 0.3 mm 3 mps 754 mmHg 61%
    14:00 +30°C° 0.3 mm 3 mps 754 mmHg 64%
    15:00 +29°C° 0.3 mm 3 mps 753 mmHg 66%
    16:00 +29°C° 0.1 mm 3 mps 753 mmHg 68%
    17:00 +28°C° 0.1 mm 3 mps 754 mmHg 71%
    18:00 +28°C° 0.1 mm 3 mps 754 mmHg 73%
    19:00 +27°C° 0.1 mm 2 mps 754 mmHg 75%
    20:00 +26°C° 0.1 mm 2 mps 754 mmHg 78%
    21:00 +26°C° 0.1 mm 1 mps 755 mmHg 80%
    22:00 +25°C° 0 mm 1 mps 755 mmHg 81%
    23:00 +25°C° 0 mm 1 mps 755 mmHg 82%

    22 January, Wednesday

    Time Temperature Precipitation Wind Pressure Humidity
    00:00 +25°C° 0 mm 1 mps 755 mmHg 83%
    01:00 +25°C° 0 mm 1 mps 754 mmHg 84%
    02:00 +24°C° 0 mm 1 mps 754 mmHg 85%
    03:00 +24°C° 0 mm 1 mps 754 mmHg 86%
    04:00 +22°C° 0 mm 0 mps 754 mmHg 86%
    05:00 +22°C° 0 mm 0 mps 754 mmHg 86%
    06:00 +22°C° 0 mm 0 mps 754 mmHg 85%
    07:00 +26°C° 0 mm 1 mps 754 mmHg 78%
    08:00 +28°C° 0 mm 1 mps 754 mmHg 71%
    09:00 +30°C° 0 mm 1 mps 754 mmHg 64%
    10:00 +31°C° 0 mm 1 mps 754 mmHg 60%
    11:00 +32°C° 0 mm 2 mps 754 mmHg 56%
    12:00 +34°C° 0 mm 2 mps 753 mmHg 52%
    13:00 +34°C° 0.1 mm 3 mps 753 mmHg 55%
    14:00 +33°C° 0.1 mm 4 mps 752 mmHg 58%
    15:00 +33°C° 0.1 mm 4 mps 752 mmHg 62%
    16:00 +32°C° 0.2 mm 4 mps 752 mmHg 67%
    17:00 +30°C° 0.2 mm 4 mps 752 mmHg 72%
    18:00 +29°C° 0.2 mm 3 mps 752 mmHg 77%
    19:00 +28°C° 0.3 mm 3 mps 752 mmHg 79%
    20:00 +28°C° 0.3 mm 2 mps 752 mmHg 81%
    21:00 +27°C° 0.3 mm 2 mps 752 mmHg 83%
    22:00 +27°C° 0.2 mm 2 mps 752 mmHg 85%
    23:00 +27°C° 0.2 mm 1 mps 752 mmHg 86%

    23 January, Thursday

    Time Temperature Precipitation Wind Pressure Humidity
    00:00 +26°C° 0.2 mm 1 mps 751 mmHg 87%
    01:00 +26°C° 0.1 mm 1 mps 751 mmHg 87%
    02:00 +26°C° 0.1 mm 1 mps 750 mmHg 88%
    03:00 +26°C° 0.1 mm 1 mps 750 mmHg 88%
    04:00 +26°C° 0.4 mm 1 mps 750 mmHg 88%
    05:00 +26°C° 0.4 mm 1 mps 750 mmHg 88%
    06:00 +26°C° 0.4 mm 1 mps 750 mmHg 87%
    07:00 +26°C° 2.1 mm 1 mps 750 mmHg 89%
    08:00 +26°C° 2.1 mm 1 mps 751 mmHg 90%
    09:00 +26°C° 2.1 mm 1 mps 751 mmHg 91%
    10:00 +28°C° 0.7 mm 1 mps 751 mmHg 82%
    11:00 +30°C° 0.7 mm 1 mps 750 mmHg 73%
    12:00 +32°C° 0.7 mm 1 mps 750 mmHg 64%
    13:00 +32°C° 0.9 mm 1 mps 750 mmHg 65%
    14:00 +32°C° 0.9 mm 2 mps 749 mmHg 66%
    15:00 +31°C° 0.9 mm 3 mps 749 mmHg 67%
    16:00 +30°C° 2.5 mm 2 mps 749 mmHg 74%
    17:00 +28°C° 2.5 mm 2 mps 749 mmHg 80%
    18:00 +27°C° 2.5 mm 2 mps 749 mmHg 87%
    19:00 +27°C° 3.2 mm 2 mps 749 mmHg 88%
    20:00 +26°C° 3.2 mm 2 mps 750 mmHg 90%
    21:00 +26°C° 3.2 mm 3 mps 750 mmHg 92%
    22:00 +26°C° 4.3 mm 2 mps 750 mmHg 93%
    23:00 +25°C° 4.3 mm 2 mps 750 mmHg 93%

    24 January, Friday

    Time Temperature Precipitation Wind Pressure Humidity
    00:00 +25°C° 4.3 mm 1 mps 750 mmHg 93%
    01:00 +25°C° 1.9 mm 1 mps 749 mmHg 93%
    02:00 +25°C° 1.9 mm 2 mps 749 mmHg 92%
    03:00 +24°C° 1.9 mm 2 mps 748 mmHg 91%
    04:00 +24°C° 1.7 mm 2 mps 749 mmHg 90%
    05:00 +24°C° 1.7 mm 2 mps 749 mmHg 89%
    06:00 +24°C° 1.7 mm 1 mps 749 mmHg 88%
    07:00 +25°C° 0 mm 1 mps 749 mmHg 85%
    08:00 +25°C° 0 mm 1 mps 750 mmHg 81%
    09:00 +26°C° 0 mm 1 mps 750 mmHg 78%
    10:00 +28°C° 0.1 mm 1 mps 750 mmHg 72%
    11:00 +29°C° 0.1 mm 2 mps 750 mmHg 67%
    12:00 +31°C° 0.1 mm 2 mps 750 mmHg 61%
    13:00 +30°C° 0.5 mm 2 mps 750 mmHg 68%
    14:00 +28°C° 0.5 mm 3 mps 750 mmHg 74%
    15:00 +27°C° 0.5 mm 3 mps 750 mmHg 81%
    16:00 +27°C° 0.9 mm 3 mps 750 mmHg 82%
    17:00 +27°C° 0.9 mm 2 mps 750 mmHg 84%
    18:00 +26°C° 0.9 mm 2 mps 750 mmHg 85%
    19:00 +26°C° 0.9 mm 2 mps 751 mmHg 86%
    20:00 +26°C° 0.9 mm 2 mps 752 mmHg 86%
    21:00 +26°C° 0.9 mm 2 mps 752 mmHg 87%
    22:00 +26°C° 0.4 mm 1 mps 752 mmHg 87%
    23:00 +26°C° 0.4 mm 1 mps 753 mmHg 88%
    Show more